Date String (YYYY-MM-DD hh:mm:ss) UTC,Instrument flags,Ambient pressure (hPa),Sample flow (lpm),Bypass flow (lpm),Sample temperature (°C),Ambient temperature (°C),ASC tube jacket temperature (°C),LED temperature (°C),Box temperature (°C),Sample RH (%),Span deviation,Mass concentration (μg/m³),Mass concentration (μg/m³),Mass concentration (μg/m³)
DateTimeUTC,F1_M11,P_M11,Q1_M11,Q2_M11,T1_M11,T2_M11,T3_M11,T4_M11,T5_M11,U1_M11,ZSPAN_M11,X0_M11,X2_M11,X1_M11
2022-04-16 00:00:00,,0821.2,5.00,0.00,28.0,27.4,00.0,36.9,29.8,08.7,0000.0,0020.27,0005.77,0004.14
2022-04-16 00:01:00,,0821.1,5.00,0.00,28.0,27.4,00.0,36.9,29.8,08.7,0000.0,0019.93,0005.70,0004.13
2022-04-16 00:02:00,,0821.2,5.00,0.00,28.1,27.4,00.0,36.9,29.8,08.7,0000.0,0018.66,0005.65,0004.11
2022-04-16 00:03:00,,0821.2,5.00,0.00,28.1,27.4,00.0,36.9,29.9,08.7,0000.0,0018.96,0005.73,0004.11
2022-04-16 00:04:00,,0821.1,5.00,0.00,28.1,27.4,00.0,36.9,29.8,08.6,0000.0,0019.47,0005.78,0004.11
2022-04-16 00:05:00,,0821.2,4.99,0.00,28.1,27.4,00.0,36.9,29.9,08.6,0000.0,0019.46,0005.78,0004.11
2022-04-16 00:06:00,,0821.2,5.01,0.00,28.1,27.4,00.0,36.9,29.9,08.7,0000.0,0018.11,0005.82,0004.10
2022-04-16 00:07:00,,0821.2,5.01,0.00,28.1,27.4,00.0,36.9,29.9,08.8,0000.0,0017.63,0005.75,0004.10
2022-04-16 00:08:00,,0821.2,5.00,0.00,28.1,27.5,00.0,37.0,29.9,08.8,0000.0,0017.49,0005.72,0004.09
2022-04-16 00:09:00,,0821.2,5.00,0.00,28.1,27.5,00.0,37.0,29.9,08.8,0000.0,0018.08,0005.77,0004.09
2022-04-16 00:10:00,,0821.3,5.01,0.00,28.1,27.5,00.0,37.0,29.9,08.6,0000.0,0018.03,0005.81,0004.07
2022-04-16 00:11:00,,0821.3,5.00,0.00,28.1,27.5,00.0,37.0,29.9,08.5,0000.0,0016.87,0005.80,0004.06
2022-04-16 00:12:00,,0821.3,5.00,0.00,28.1,27.5,00.0,37.0,29.9,08.6,0000.0,0017.09,0005.80,0004.05
2022-04-16 00:13:00,,0821.4,5.00,0.00,28.1,27.5,00.0,37.0,29.9,08.6,0000.0,0017.32,0005.85,0004.04
2022-04-16 00:14:00,,0821.4,5.01,0.00,28.1,27.5,00.0,37.0,29.9,08.6,0000.0,0017.03,0005.77,0004.02
2022-04-16 00:15:00,,0821.4,5.00,0.00,28.1,27.4,00.0,37.0,29.9,08.5,0000.0,0016.47,0005.69,0004.02
2022-04-16 00:16:00,,0821.4,5.01,0.00,28.1,27.4,00.0,37.0,29.9,08.5,0000.0,0016.45,0005.75,0004.05
2022-04-16 00:17:00,,0821.4,5.00,0.00,28.1,27.4,00.0,37.0,29.9,08.4,0000.0,0016.54,0005.74,0004.08
2022-04-16 00:18:00,,0821.5,5.00,0.00,28.1,27.4,00.0,37.0,29.9,08.4,0000.0,0016.53,0005.80,0004.11
2022-04-16 00:19:00,,0821.6,5.00,0.00,28.1,27.4,00.0,37.0,29.9,08.4,0000.0,0016.24,0005.89,0004.16
2022-04-16 00:20:00,,0821.7,5.01,0.00,28.1,27.4,00.0,37.0,29.9,08.4,0000.0,0015.95,0005.93,0004.20
2022-04-16 00:21:00,,0821.7,5.01,0.00,28.1,27.4,00.0,37.0,29.9,08.4,0000.0,0015.97,0005.94,0004.23
2022-04-16 00:22:00,,0821.7,5.00,0.00,28.1,27.4,00.0,37.0,29.9,08.4,0000.0,0016.75,0006.00,0004.26
2022-04-16 00:23:00,,0821.7,5.00,0.00,28.1,27.4,00.0,37.0,29.9,08.5,0000.0,0017.31,0006.04,0004.29
2022-04-16 00:24:00,,0821.8,4.99,0.00,28.1,27.4,00.0,37.0,29.9,08.4,0000.0,0017.27,0006.01,0004.32
2022-04-16 00:25:00,,0821.8,4.99,0.00,28.1,27.4,00.0,37.0,29.9,08.5,0000.0,0017.24,0006.04,0004.34
2022-04-16 00:26:00,,0821.8,5.00,0.00,28.1,27.4,00.0,37.0,29.9,08.5,0000.0,0017.16,0006.06,0004.34
2022-04-16 00:27:00,,0821.8,4.99,0.00,28.1,27.4,00.0,37.0,29.9,08.4,0000.0,0017.91,0006.03,0004.33
2022-04-16 00:28:00,,0821.8,5.00,0.00,28.1,27.4,00.0,37.0,29.9,08.4,0000.0,0018.16,0006.09,0004.31
2022-04-16 00:29:00,,0821.8,5.00,0.00,28.2,27.4,00.0,37.0,29.9,08.4,0000.0,0019.07,0006.08,0004.26
2022-04-16 00:30:00,,0822.0,5.01,0.00,28.2,27.4,00.0,37.0,29.9,08.5,0000.0,0020.29,0005.99,0004.21
2022-04-16 00:31:00,,0821.8,5.00,0.00,28.2,27.4,00.0,37.0,29.9,08.4,0000.0,0020.12,0005.92,0004.16
2022-04-16 00:32:00,,0821.9,5.00,0.00,28.2,27.4,00.0,37.0,29.9,08.4,0000.0,0019.57,0005.84,0004.13
2022-04-16 00:33:00,,0822.0,5.01,0.00,28.2,27.4,00.0,37.0,29.9,08.3,0000.0,0019.70,0005.76,0004.10
2022-04-16 00:34:00,,0822.0,5.00,0.00,28.2,27.4,00.0,37.1,29.9,08.3,0000.0,0019.70,0005.73,0004.07
2022-04-16 00:35:00,,0822.1,5.00,0.00,28.2,27.4,00.0,37.1,29.9,08.3,0000.0,0020.46,0005.68,0004.05
2022-04-16 00:36:00,,0822.1,5.00,0.00,28.2,27.4,00.0,37.1,29.9,08.3,0000.0,0021.59,0005.65,0004.03
2022-04-16 00:37:00,,0822.1,5.00,0.00,28.2,27.4,00.0,37.1,29.9,08.3,0000.0,0021.77,0005.65,0004.01
2022-04-16 00:38:00,,0822.2,5.00,0.00,28.2,27.4,00.0,37.1,29.9,08.3,0000.0,0020.93,0005.63,0004.00
2022-04-16 00:39:00,,0822.2,5.00,0.00,28.2,27.4,00.0,37.1,29.9,08.3,0000.0,0021.36,0005.55,0003.98
2022-04-16 00:40:00,,0822.3,5.02,0.00,28.2,27.4,00.0,37.1,29.9,08.3,0000.0,0020.53,0005.52,0003.98
2022-04-16 00:41:00,,0822.3,5.00,0.00,28.2,27.4,00.0,37.1,29.9,08.3,0000.0,0019.52,0005.53,0003.98
2022-04-16 00:42:00,,0822.4,4.99,0.00,28.2,27.4,00.0,37.1,29.9,08.3,0000.0,0019.46,0005.55,0003.99
2022-04-16 00:43:00,,0822.4,5.00,0.00,28.1,27.4,00.0,37.1,29.9,08.3,0000.0,0019.83,0005.55,0003.99
2022-04-16 00:44:00,,0822.4,5.00,0.00,28.1,27.3,00.0,37.1,29.9,08.3,0000.0,0018.81,0005.48,0004.00
2022-04-16 00:45:00,,0822.5,5.01,0.00,28.1,27.3,00.0,37.1,29.9,08.3,0000.0,0018.60,0005.47,0004.00
2022-04-16 00:46:00,,0822.4,5.00,0.00,28.1,27.3,00.0,37.1,29.9,08.3,0000.0,0018.40,0005.52,0004.00
2022-04-16 00:47:00,,0822.5,5.00,0.00,28.1,27.3,00.0,37.1,29.9,08.3,0000.0,0017.49,0005.51,0004.00
2022-04-16 00:48:00,,0822.5,5.00,0.00,28.1,27.3,00.0,37.0,29.9,08.3,0000.0,0018.98,0005.53,0004.00
2022-04-16 00:49:00,,0822.5,4.99,0.00,28.1,27.4,00.0,37.0,29.9,08.4,0000.0,0019.71,0005.56,0003.99
2022-04-16 00:50:00,,0822.6,5.00,0.00,28.1,27.3,00.0,37.0,29.9,08.4,0000.0,0020.28,0005.55,0003.99
2022-04-16 00:51:00,,0822.5,5.01,0.00,28.1,27.3,00.0,37.0,29.9,08.4,0000.0,0019.97,0005.52,0003.98
2022-04-16 00:52:00,,0822.6,5.01,0.00,28.1,27.3,00.0,37.0,29.9,08.5,0000.0,0019.59,0005.50,0003.97
2022-04-16 00:53:00,,0822.5,5.00,0.00,28.1,27.3,00.0,37.0,29.9,08.5,0000.0,0021.00,0005.51,0003.95
2022-04-16 00:54:00,,0822.5,5.00,0.00,28.1,27.2,00.0,37.0,29.9,08.4,0000.0,0020.69,0005.54,0003.95
2022-04-16 00:55:00,,0822.6,4.99,0.00,28.1,27.2,00.0,37.0,29.9,08.5,0000.0,0021.38,0005.63,0003.95
2022-04-16 00:56:00,,0822.6,5.00,0.00,28.1,27.3,00.0,37.0,29.9,08.5,0000.0,0021.42,0005.66,0003.97
2022-04-16 00:57:00,,0822.6,5.00,0.00,28.1,27.3,00.0,37.0,29.9,08.5,0000.0,0021.31,0005.68,0003.98
2022-04-16 00:58:00,,0822.6,5.00,0.00,28.1,27.3,00.0,37.0,29.9,08.4,0000.0,0021.99,0005.71,0003.99
2022-04-16 00:59:00,,0822.7,5.01,0.00,28.1,27.3,00.0,37.0,29.9,08.5,0000.0,0021.67,0005.69,0004.00
